Observations for Trim Market St
| Time | AQI | Temp °C | Hum % | Pres Pa | CO μg/m³ | H₂S μg/m³ | NO μg/m³ | NO₂ μg/m³ | O₃ μg/m³ | SO₂ μg/m³ | PM1 μg/m³ | PM2.5 μg/m³ | PM10 μg/m³ |
|---|---|---|---|---|---|---|---|---|---|---|---|---|---|
| Wednesday 8 July 2026 | |||||||||||||
| 04:03 | 1 | 16.5 | 77 | 21,966 | 0.07 | 0 | 0 | 4.01 | 10.08 | 0 | 0 | 1.28 | 3.45 |
| 04:02 | 1 | 16.5 | 77 | 22,097 | 0.07 | 0 | 0 | 3.61 | 9.12 | 0 | 0 | 1.28 | 3.45 |
| 04:01 | 1 | 16.5 | 77 | 22,215 | 0.07 | 0 | 0 | 3.61 | 9.44 | 0 | 0 | 0.8 | 2.87 |
| 04:00 | 1 | 16.5 | 77 | 22,271 | 0.07 | 0 | 0 | 3.21 | 9.54 | 0 | 0 | 0.8 | 2.87 |
| 03:59 | 1 | 16.5 | 77 | 22,330 | 0.09 | 0 | 0.88 | 4.72 | 8.63 | 0 | 0 | 0.81 | 2.86 |
| 03:58 | 1 | 16.5 | 77 | 22,472 | 0.06 | 0 | 0 | 3.82 | 10.36 | 0 | 0.71 | 1.28 | 3.45 |
| 03:57 | 1 | 16.5 | 77 | 22,752 | 0.06 | 0 | 0.61 | 3.23 | 10.96 | 0 | 0 | 1.29 | 3.44 |
| 03:56 | 1 | 16.5 | 77 | 23,136 | 0.06 | 0 | 0 | 3.83 | 10.27 | 0 | 0 | 0.81 | 4.03 |
| 03:55 | 1 | 16.5 | 77 | 23,530 | 0.06 | 0 | 0 | 2.14 | 16.19 | 0 | 0.71 | 1.77 | 4.02 |
| 03:53 | 1 | 16.5 | 77 | 23,741 | 0.05 | 0 | 0 | 3.44 | 11.78 | 0 | 0 | 1.29 | 3.44 |
| 03:52 | 1 | 16.6 | 77 | 24,115 | 0.05 | 0 | 0 | 3.03 | 12.35 | 0 | 0 | 0.82 | 2.85 |
| 03:51 | 1 | 16.6 | 77 | 24,506 | 0.05 | 0 | 0.47 | 4.14 | 12.19 | 0 | 0 | 1.3 | 3.43 |
| 03:49 | 1 | 16.6 | 77 | 25,445 | 0.04 | 0 | 0 | 3.24 | 11.03 | 0 | 0 | 0.82 | 2.84 |
| 03:48 | 1 | 16.6 | 77 | 25,913 | 0.04 | 0 | 0 | 3.55 | 12.36 | 0 | 0 | 1.78 | 4.01 |
| 03:46 | 1 | 16.6 | 77 | 26,763 | 0.04 | 0 | 0 | 3.36 | 12.1 | 0 | 0 | 1.79 | 4.01 |
| 03:45 | 1 | 16.6 | 77 | 27,142 | 0.04 | 0 | 0 | 2.86 | 11.16 | 0 | 0 | 1.31 | 3.42 |
| 03:43 | 1 | 16.7 | 77 | 27,999 | 0.04 | 0 | 0 | 3.05 | 11.15 | 0 | 0.71 | 1.31 | 4.01 |
| 03:42 | 1 | 16.7 | 76 | 28,408 | 0.04 | 0 | 0.06 | 3.26 | 10.79 | 0 | 0 | 1.32 | 3.41 |
| 03:41 | 1 | 16.7 | 76 | 28,871 | 0.03 | 0 | 0 | 2.87 | 11.55 | 0 | 0 | 1.32 | 3.41 |
| 03:37 | 1 | 16.8 | 76 | 30,299 | 0.01 | 0 | 0 | 2.46 | 11.39 | 0 | 0 | 1.81 | 3.99 |